Location: *
(72.0000°S, 175.4000°W)
Time: 18:04:39
(UTC+00:00)

Daily predictions for brighter satellites

Satellite Brightness Start Highest point End
(mag) Time Altitude Azimuth Time Altitude Azimuth Time Altitude Azimuth
Cosmos 2098 Rocket 4.1 12:00:33 10° SSW 12:03:45 38° SE 12:07:32 10° ENE
Cosmos 1975 Rocket 4.2 12:00:37 10° SSW 12:04:59 47° SE 12:09:22 10° ENE
Cosmos 2322 4.3 12:00:04 10° WSW 12:05:18 38° NW 12:10:32 10° NNE
Cosmos 1743 Rocket 4.3 12:01:17 10° NW 12:05:40 51° SW 12:10:07 10° SSE
IGS 5A 4.1 12:04:15 10° SSE 12:08:27 55° SW 12:12:37 10° NW
Cosmos 1943 3.2 12:04:49 10° W 12:10:33 82° N 12:16:19 10° E
ARGOS 4.4 12:06:45 10° SE 12:11:53 42° SSW 12:16:59 10° W
AQUA 4.0 12:07:22 11° N 12:12:05 64° WNW 12:16:57 10° SSW
Cosmos 1741 Rocket 4.3 12:06:49 10° WSW 12:12:09 76° SSE 12:17:30 10° E
Cosmos 1805 Rocket 3.9 12:07:54 10° NW 12:12:21 69° WSW 12:16:53 10° SSE
Cosmos 2285 Rocket 4.2 12:07:11 10° WNW 12:13:36 78° SSW 12:20:02 10° ESE
Spot 4 4.1 12:08:46 10° SSE 12:13:41 64° ENE 12:18:11 12° N
H-2A R/B 3.9 12:09:29 10° ENE 12:13:53 45° SE 12:18:13 10° SSW
IRS-P3 4.2 12:08:26 10° NNE 12:13:53 71° WNW 12:19:21 10° SSW
Cosmos 1825 3.4 12:10:55 10° WNW 12:14:36 40° SW 12:18:20 10° SSE
Okean 3 3.5 12:10:40 10° SSW 12:14:59 79° WNW 12:19:16 10° NNE
Cosmos 1486 Rocket 4.4 12:11:04 10° W 12:16:27 72° S 12:21:48 10° E
Cosmos 614 Rocket 4.0 12:11:15 10° WSW 12:16:29 81° NNW 12:21:43 10° NE
Cosmos 2034 Rocket 4.2 12:10:42 10° NNW 12:17:12 79° WSW 12:23:43 10° SSE
Iridium 4 Rocket 3.4 12:12:01 10° S 12:17:16 87° ESE 12:22:00 10° N
Cosmos 1238 Rocket 3.9 12:16:31 10° WNW 12:20:12 37° SW 12:23:25 10° SSE
Cosmos 1354 Rocket 4.3 12:15:01 10° W 12:20:26 76° SSW 12:25:53 10° ESE
SL-27 R/B 3.3 12:17:49 14° N 12:20:38 39° NE 12:24:05 10° SE
Cosmos 1437 3.0 12:17:50 11° NW 12:20:52 64° SW 12:24:04 10° SSE
Cosmos 2219 Rocket 2.7 12:17:10 10° WSW 12:22:32 41° NW 12:27:52 10° NNE
Meteor 2-4 Rocket 3.7 12:16:57 10° SSW 12:22:39 77° WNW 12:28:09 10° NNE
ERS-1 Rocket 3.4 12:18:11 10° SSE 12:23:16 63° SW 12:28:20 10° NW
COSMOS 2487 4.4 12:21:11 10° NNE 12:23:47 19° ENE 12:26:25 10° ESE
Cosmos 1408 4.3 12:21:39 10° WNW 12:25:00 31° SW 12:28:22 10° SSE
SeaSat 1 2.4 12:20:36 10° ENE 12:25:37 72° NNW 12:30:40 10° WSW
Cosmos 2237 Rocket 2.3 12:20:06 10° WSW 12:25:40 54° NW 12:31:11 10° NE
USA 81 4.3 12:21:16 10° SSW 12:26:35 64° W 12:31:39 11° N
Meteor 2-3 Rocket 4.2 12:21:19 10° NW 12:27:09 65° SW 12:32:58 10° SSE
Resurs 01 Rocket 3.2 12:23:24 10° SSE 12:27:30 35° SSW 12:31:36 10° W
SJ 16-02 1.6 12:23:33 12° NNW 12:27:41 59° NE 12:32:08 10° SE
USA 215 4.2 12:23:21 10° NE 12:28:29 23° NNW 12:33:38 10° WNW
ARIANE 5 R/B 2.6 12:23:48 10° NNE 12:29:02 78° WNW 12:34:23 10° SSW
COSMOS 2428 3.3 12:24:05 10° WSW 12:29:27 40° NW 12:34:47 10° NNE
Cosmos 2279 Rocket 4.2 12:24:01 11° N 12:30:05 69° ENE 12:36:25 10° SSE
CARTOSAT-1 4.2 12:26:53 10° SSE 12:31:13 55° SW 12:35:33 10° NW
Cosmos 676 Rocket 4.1 12:26:16 10° WSW 12:31:41 87° NNW 12:37:07 10° ENE
Helios 1A 3.2 12:29:16 10° SSE 12:33:33 66° ENE 12:37:31 12° NNW
Meteor 1-23 Rocket 4.4 12:28:42 10° SSW 12:34:41 84° ESE 12:40:34 10° NNE
Sich 1 3.5 12:31:13 10° NW 12:35:39 63° WSW 12:40:10 10° SSE
IDEFIX/ARIANE 42P 3.1 12:32:30 10° NE 12:37:43 66° SE 12:42:59 10° SSW
Cosmos 2322 Rocket 3.8 12:33:52 10° WSW 12:37:44 19° WNW 12:41:33 10° NW
Cosmos 968 Rocket 3.8 12:32:33 10° W 12:37:48 72° S 12:43:01 10° ESE
CZ-4C R/B 3.1 12:32:52 10° NW 12:39:19 38° NNE 12:44:49 10° E
Cosmos 1980 4.0 12:35:59 10° WSW 12:41:32 49° NW 12:47:03 10° NNE
Cosmos 1745 Rocket 4.3 12:35:34 10° SSW 12:41:56 75° ESE 12:48:12 10° NNE
CZ-2D R/B 3.7 12:37:39 10° NNE 12:42:13 87° WNW 12:46:48 10° SSW
Cosmos 1190 Rocket 4.0 12:37:21 10° WSW 12:42:41 73° NW 12:48:02 10° NE
Okean 2 4.3 12:38:47 10° SSW 12:42:58 53° SE 12:47:06 10° NE
Spot 4 Rocket 4.1 12:38:15 10° NNE 12:43:31 74° WNW 12:48:49 10° SSW
SPOT 1/Viking Rocket 4.2 12:39:01 10° SSE 12:44:14 55° SW 12:49:24 10° WNW
Cosmos 1674 Rocket 3.6 12:40:47 10° SSW 12:45:18 75° WNW 12:49:45 10° NNE
Cosmos 1503 Rocket 4.4 12:41:18 10° W 12:46:45 73° S 12:52:14 10° E
NPP 4.3 12:41:53 11° N 12:46:55 44° W 12:52:10 10° SSW
Cosmos 1666 Rocket 3.9 12:43:27 10° NW 12:47:53 63° WSW 12:52:20 10° SSE
IRS-1D 3.8 12:43:13 10° N 12:48:08 51° WNW 12:53:08 10° SSW
Cosmos 407 Rocket 3.6 12:43:01 10° WSW 12:48:26 69° NW 12:53:50 10° NE
Cosmos 1933 Rocket 3.6 12:44:55 12° NNW 12:49:04 87° ENE 12:53:35 10° SSE
Cosmos 1025 Rocket 4.4 12:46:30 10° SSW 12:50:50 44° SE 12:55:08 10° ENE
Cosmos 2360 Rocket 3.5 12:46:47 10° WSW 12:51:05 22° WNW 12:55:09 11° NNW
YAOGAN 11 4.5 12:48:41 10° SSE 12:53:22 66° ENE 12:57:55 11° NNW
Meteor 1-31 Rocket 4.4 12:53:27 10° ENE 12:57:11 40° SE 13:00:57 10° SSW
Cosmos 1862 3.7 12:53:09 10° NW 12:57:12 60° WSW 13:01:18 10° SSE
CZ-4 R/B 4.4 12:54:26 10° SE 12:57:22 20° S 13:00:19 10° SW
Cosmos 1777 Rocket 4.2 12:52:09 10° WNW 12:57:30 80° SSW 13:02:53 10° ESE
Cosmos 1937 Rocket 3.7 12:54:07 10° NW 12:59:25 69° NE 13:04:47 10° ESE
Cosmos 1515 4.1 12:55:50 10° SSW 12:59:38 50° WNW 13:03:25 10° N
Cosmos 1633 3.2 12:57:18 10° NW 13:01:00 52° SW 13:04:42 10° SSE
Cosmos 1066 Rocket 4.3 12:55:20 10° SSW 13:01:07 89° WNW 13:06:43 10° NNE
Resurs 1-4 Rocket 2.9 12:56:27 11° NNW 13:01:18 37° W 13:06:19 10° SSW
RESURS DK-1 2.8 12:58:20 10° WSW 13:02:20 41° NW 13:06:20 10° NE
Meteor 1-13 Rocket 4.4 12:59:56 10° SSW 13:05:28 61° WNW 13:11:02 10° N
Cosmos 1633 Rocket 3.6 13:01:57 10° NW 13:06:25 57° SW 13:10:55 10° SSE
CZ-2C R/B 3.1 13:02:02 10° NE 13:06:48 57° SE 13:11:28 10° SSW
Okean 1-7 4.3 13:03:10 10° SSW 13:07:02 29° W 13:10:52 10° NW
Cosmos 1850 Rocket 4.1 13:03:34 10° WSW 13:09:02 90° SSW 13:14:29 10° ENE
ATLAS 2AS CENTAUR R/B 4.0 13:05:37 10° W 13:09:28 17° WNW 13:13:28 10° NNW
Cosmos 1634 Rocket 4.1 13:04:00 10° NNW 13:10:16 76° WSW 13:16:35 10° SSE
Cosmos 990 Rocket 4.1 13:06:55 10° NW 13:12:15 79° NE 13:17:36 10° ESE
Cosmos 1603 3.7 13:08:36 10° WSW 13:14:21 73° NNW 13:20:03 10° ENE
SWARM A 4.4 13:11:48 10° N 13:15:15 80° E 13:18:45 10° S
CZ-4B R/B 3.9 13:11:40 10° ENE 13:15:15 46° SE 13:18:58 10° SSW
SL-16 R/B 2.3 13:09:43 10° WSW 13:15:19 55° NW 13:20:54 10° NE
Cosmos 1470 Rocket 3.9 13:11:15 10° NW 13:15:49 66° WSW 13:20:25 10° SSE
Cosmos 2221 Rocket 4.4 13:11:50 10° SSW 13:16:00 36° W 13:20:07 10° NNW
Cosmos 909 Rocket 4.3 13:12:39 10° W 13:18:39 46° NNW 13:24:55 10° NE
CZ-2C R/B 2.9 13:15:52 10° NNE 13:19:49 68° WNW 13:23:53 10° SSW
H-2A R/B 3.9 13:16:07 10° SE 13:20:29 30° SSW 13:24:48 10° WSW
Cosmos 405 3.0 13:17:30 10° SSW 13:21:11 78° WNW 13:24:51 10° NNE
Cosmos 1833 Rocket 2.8 13:16:07 10° WNW 13:21:49 71° NNE 13:27:32 10° ESE
Cosmos 1378 3.8 13:18:21 10° SSW 13:22:11 62° ESE 13:26:00 10° NE
Cosmos 2333 Rocket 3.2 13:17:33 10° WSW 13:22:18 27° WNW 13:27:01 10° N
Cosmos 1954 Rocket 4.1 13:17:34 10° WSW 13:22:55 69° NW 13:28:18 10° NE
CZ-2D R/B 3.2 13:19:23 10° NNW 13:24:20 32° W 13:29:20 10° SSW
deb Kosmos-1763 4.2 13:21:01 10° NW 13:24:43 63° NE 13:28:26 10° ESE
SPOT 5 3.8 13:21:53 10° SSE 13:26:05 40° SW 13:30:23 10° WNW
Okean O Rocket 3.2 13:25:22 10° ENE 13:29:31 41° SE 13:33:45 10° SSW
Terra 2.8 13:26:06 10° SSE 13:30:44 45° SW 13:35:21 10° WNW
COSMOS 2406 3.3 13:25:29 10° WNW 13:31:15 80° N 13:37:01 10° E
ADEOS 3.6 13:26:19 10° NNE 13:31:39 78° WNW 13:37:01 10° SSW
Cosmos 1869 Rocket 3.6 13:27:56 10° NNW 13:32:23 88° ENE 13:36:54 10° SSE
deb Chang Zheng 4 4.3 13:28:55 10° NNW 13:32:58 37° W 13:37:02 10° SSW
Helios 1A Rocket 4.4 13:29:25 10° ENE 13:33:24 43° SE 13:37:21 10° SSW
Cosmos 1536 4.2 13:30:00 10° NNE 13:33:51 38° E 13:37:44 10° SSE
CZ-4C R/B 4.4 13:30:58 10° SSE 13:34:25 36° E 13:37:45 10° NNE
Meteor 1-4 Rocket 4.0 13:32:09 10° SSW 13:35:56 46° SE 13:39:42 10° ENE
Cosmos 2082 Rocket 2.3 13:31:06 10° WNW 13:36:45 70° NNE 13:42:26 10° ESE
ADEOS II 2.6 13:32:52 10° N 13:37:59 44° W 13:43:07 10° SSW
Cosmos 1898 Rocket 3.6 13:32:55 10° WNW 13:38:21 89° NNE 13:43:46 10° ESE
ALOS 2 2.8 13:35:42 10° SSE 13:40:13 77° WSW 13:44:42 10° NW
Cosmos 1500 4.2 13:37:43 10° N 13:41:30 46° E 13:45:18 10° SSE
Cosmos 1378 Rocket 4.0 13:37:36 10° SSW 13:41:55 48° W 13:46:15 10° N
Cosmos 1842 3.7 13:38:46 10° SSW 13:42:48 71° ESE 13:46:50 10° NE
Cosmos 1975 Rocket 3.1 13:38:39 10° SSW 13:43:09 72° WNW 13:47:39 10° N
Cosmos 1140 Rocket 3.7 13:39:32 10° SW 13:44:44 54° NW 13:49:54 10° NNE
Cosmos 2098 Rocket 2.7 13:41:45 10° SSW 13:45:11 68° WNW 13:49:21 10° N
Cosmos 372 Rocket 4.1 13:42:36 10° NW 13:47:46 69° NE 13:53:01 10° ESE
Cosmos 1707 4.0 13:44:08 10° SSW 13:47:59 48° SE 13:51:50 10° NE
PSLV R/B 3.6 13:44:47 10° NNE 13:49:07 75° WNW 13:53:31 10° SSW
H-2A R/B 2.7 13:44:35 10° NNE 13:49:13 84° WNW 13:53:49 10° SSW
Cosmos 1825 4.5 13:47:58 10° WSW 13:51:04 22° SSW 13:54:11 10° SSE
ERS-2 3.1 13:47:33 10° SSE 13:51:11 44° ENE 13:54:47 10° N
Spot 4 4.3 13:46:53 10° SSE 13:51:44 58° SW 13:56:35 10° NW
ALOS 3.6 13:47:26 10° ENE 13:52:00 47° SE 13:56:36 10° SSW
Cosmos 1346 Rocket 3.8 13:48:35 10° N 13:52:21 44° ENE 13:56:11 10° SSE
Cosmos 1340 3.7 13:49:06 10° N 13:52:47 43° ENE 13:56:30 10° SSE
CZ-4B R/B 4.0 13:48:57 10° ENE 13:54:26 61° SE 14:00:02 10° SW
Cosmos 1741 Rocket 4.0 13:49:09 10° WSW 13:54:28 74° NW 13:59:47 10° NE
Cosmos 1943 3.2 13:48:52 10° WSW 13:54:33 67° NNW 14:00:14 10° NE
SL-27 R/B 2.6 13:51:56 10° WNW 13:55:35 88° SSW 13:59:18 10° ESE
Iridium 4 Rocket 4.2 13:52:11 10° S 13:56:55 37° WSW 14:01:15 10° NW
Cosmos 614 Rocket 4.4 13:52:56 10° SW 13:57:49 42° WNW 14:02:42 10° N
COSMOS 2487 2.9 13:54:52 10° NNW 13:58:20 52° NE 14:01:51 10° SE
Cosmos 2184 Rocket 4.5 13:52:04 10° SSW 13:58:26 70° ESE 14:04:43 10° NE
Cosmos 1486 Rocket 4.3 13:53:35 10° WSW 13:58:58 79° SSE 14:04:19 10° ENE
CZ-4B R/B 4.5 13:55:20 10° NE 13:59:56 76° ESE 14:04:31 10° SSW
Cosmos 1709 Rocket 4.0 13:54:33 10° SSW 14:00:49 83° WNW 14:07:01 10° NNE
Cosmos 2285 Rocket 4.3 13:54:26 10° WSW 14:00:52 78° SSE 14:07:17 10° E
Cosmos 2150 Rocket 4.1 13:55:39 10° NW 14:00:53 76° NE 14:06:08 10° ESE
ERS-1 Rocket 4.3 13:56:55 10° SE 14:01:35 37° SSW 14:06:15 10° W
Cosmos 1125 Rocket 3.8 13:57:04 10° NW 14:02:17 63° NE 14:07:32 10° SE
Cosmos 1354 Rocket 4.4 13:57:36 10° WSW 14:03:02 75° SSE 14:08:29 10° E
Resurs 01 Rocket 3.8 13:59:30 10° SE 14:03:12 25° S 14:06:53 10° WSW
SeaSat 1 2.9 13:59:01 10° NNE 14:03:44 41° NW 14:08:29 10° WSW
H-2A R/B 4.1 14:00:30 10° SSE 14:04:02 25° E 14:07:32 10° NNE
Aureole 3 Rocket 4.2 14:00:32 10° NNE 14:04:36 36° E 14:07:52 10° SSE
Cosmos 2219 Rocket 3.6 14:01:17 10° WSW 14:05:19 20° WNW 14:09:19 10° NNW
MSX 3.9 13:59:32 10° NNE 14:05:24 73° WNW 14:11:19 10° SSW
SJ 16-02 1.6 14:01:48 10° WNW 14:06:18 74° SSW 14:10:50 10° ESE
